TimeCST,TemperatureF,Dew PointF,Humidity,Sea Level PressureIn,VisibilityMPH,Wind Direction,Wind SpeedMPH,Gust SpeedMPH,PrecipitationIn,Events,Conditions,WindDirDegrees,DateUTC
12:53 AM,19.9,16.0,85,29.98,10.0,North,5.8,-,N/A,,Overcast,350,2012-12-23 06:53:00
1:53 AM,19.0,16.0,88,30.00,10.0,Variable,4.6,-,N/A,,Overcast,0,2012-12-23 07:53:00
2:33 AM,19.4,14.0,80,29.93,10.0,North,8.1,-,N/A,,Overcast,360,2012-12-23 08:33:00
2:53 AM,18.0,14.0,84,30.01,10.0,North,9.2,-,N/A,,Overcast,10,2012-12-23 08:53:00
3:10 AM,17.6,14.0,86,29.94,10.0,NNW,10.4,-,N/A,,Overcast,330,2012-12-23 09:10:00
3:53 AM,17.1,12.9,84,30.03,8.0,North,8.1,-,0.00,Snow,Light Snow,350,2012-12-23 09:53:00
4:53 AM,17.1,12.9,84,30.04,10.0,North,6.9,17.3,0.00,,Overcast,350,2012-12-23 10:53:00
5:53 AM,18.0,12.9,81,30.06,10.0,NNW,6.9,-,N/A,,Overcast,330,2012-12-23 11:53:00
6:53 AM,17.1,12.0,81,30.07,4.0,Variable,5.8,-,0.00,Snow,Light Snow,0,2012-12-23 12:53:00
7:28 AM,15.8,8.6,73,29.99,9.0,NNW,5.8,-,0.00,Snow,Light Snow,330,2012-12-23 13:28:00
7:53 AM,16.0,9.0,74,30.09,9.0,NW,3.5,-,0.00,,Overcast,310,2012-12-23 13:53:00
8:53 AM,16.0,9.0,74,30.10,6.0,NNW,4.6,-,0.00,Snow,Light Snow,340,2012-12-23 14:53:00
9:53 AM,17.1,8.1,68,30.10,10.0,NW,10.4,-,0.00,,Overcast,320,2012-12-23 15:53:00
10:53 AM,18.0,9.0,68,30.08,10.0,North,10.4,-,N/A,,Mostly Cloudy,10,2012-12-23 16:53:00
11:40 AM,19.4,8.6,63,29.98,10.0,Variable,6.9,-,N/A,,Scattered Clouds,0,2012-12-23 17:40:00
11:53 AM,19.0,9.0,65,30.07,10.0,North,8.1,-,N/A,,Partly Cloudy,360,2012-12-23 17:53:00
12:32 PM,19.4,8.6,63,29.98,10.0,West,8.1,-,N/A,,Mostly Cloudy,280,2012-12-23 18:32:00
12:48 PM,19.4,8.6,63,29.98,10.0,NNW,6.9,-,N/A,,Scattered Clouds,330,2012-12-23 18:48:00
12:53 PM,19.9,9.0,62,30.06,10.0,NNW,3.5,-,N/A,,Scattered Clouds,340,2012-12-23 18:53:00
1:53 PM,19.9,9.0,62,30.05,10.0,Variable,3.5,-,N/A,,Clear,0,2012-12-23 19:53:00
2:53 PM,19.0,9.0,65,30.07,10.0,NW,4.6,-,N/A,,Clear,310,2012-12-23 20:53:00
3:53 PM,18.0,8.1,65,30.08,10.0,Calm,Calm,-,N/A,,Clear,0,2012-12-23 21:53:00
4:53 PM,16.0,8.1,71,30.08,10.0,Calm,Calm,-,N/A,,Clear,0,2012-12-23 22:53:00
5:53 PM,14.0,8.1,77,30.09,10.0,Calm,Calm,-,N/A,,Clear,0,2012-12-23 23:53:00
6:53 PM,12.9,8.1,81,30.10,10.0,Calm,Calm,-,N/A,,Clear,0,2012-12-24 00:53:00
7:53 PM,12.9,8.1,81,30.09,10.0,Calm,Calm,-,N/A,,Clear,0,2012-12-24 01:53:00
8:53 PM,12.0,8.1,84,30.07,10.0,Calm,Calm,-,N/A,,Clear,0,2012-12-24 02:53:00
9:53 PM,12.0,8.1,84,30.07,10.0,Calm,Calm,-,N/A,,Scattered Clouds,0,2012-12-24 03:53:00
10:53 PM,12.9,8.1,81,30.06,10.0,Calm,Calm,-,N/A,,Scattered Clouds,0,2012-12-24 04:53:00
11:14 PM,12.2,8.6,85,29.97,10.0,Calm,Calm,-,N/A,,Mostly Cloudy,0,2012-12-24 05:14:00
11:53 PM,12.9,9.0,84,30.05,10.0,Calm,Calm,-,N/A,,Overcast,0,2012-12-24 05:53:00